When you browse on this site, cookies collect data to enhance your experience and personalize the content and advertising you see.
Visit our Privacy Policy to learn more. By continuing to use the site, you agree to this use of cookies and data.
  • In Czech Republic
  • List of Countries
  • For 7 days
  • Water Temperature
  • Weather Map
  • Weather Widgets
  • user-avatar
    Login

    Hourly Weather Konstantyna

    Today, 24 February, Monday

    Time Temperature Precipitation Wind Pressure Humidity
    00:00 +8°C° 0 mm 1 mps 718 mmHg 74%
    01:00 +8°C° 0 mm 1 mps 718 mmHg 73%
    02:00 +8°C° 0 mm 1 mps 717 mmHg 71%
    03:00 +8°C° 0 mm 1 mps 717 mmHg 69%
    04:00 +8°C° 0 mm 1 mps 717 mmHg 68%
    05:00 +8°C° 0 mm 1 mps 717 mmHg 67%
    06:00 +8°C° 0 mm 1 mps 717 mmHg 66%
    07:00 +11°C° 0 mm 1 mps 717 mmHg 58%
    08:00 +13°C° 0 mm 1 mps 718 mmHg 50%
    09:00 +16°C° 0 mm 1 mps 718 mmHg 42%
    10:00 +18°C° 0 mm 1 mps 718 mmHg 38%
    11:00 +20°C° 0 mm 1 mps 718 mmHg 34%
    12:00 +20°C° 0 mm 2 mps 717 mmHg 30%
    13:00 +20°C° 0 mm 2 mps 717 mmHg 32%
    14:00 +20°C° 0 mm 2 mps 716 mmHg 34%
    15:00 +20°C° 0 mm 2 mps 716 mmHg 35%
    16:00 +18°C° 0 mm 2 mps 715 mmHg 46%
    17:00 +15°C° 0 mm 1 mps 715 mmHg 56%
    18:00 +12°C° 0 mm 1 mps 714 mmHg 66%
    19:00 +12°C° 0 mm 1 mps 714 mmHg 68%
    20:00 +11°C° 0 mm 1 mps 714 mmHg 70%
    21:00 +10°C° 0 mm 0 mps 714 mmHg 72%
    22:00 +11°C° 0 mm 1 mps 713 mmHg 70%
    23:00 +11°C° 0 mm 1 mps 713 mmHg 69%

    Tomorrow, 25 February, Tuesday

    Time Temperature Precipitation Wind Pressure Humidity
    00:00 +11°C° 0 mm 1 mps 713 mmHg 67%
    01:00 +10°C° 0 mm 1 mps 713 mmHg 65%
    02:00 +10°C° 0 mm 1 mps 712 mmHg 63%
    03:00 +10°C° 0 mm 1 mps 712 mmHg 61%
    04:00 +10°C° 0 mm 1 mps 711 mmHg 59%
    05:00 +9°C° 0 mm 2 mps 711 mmHg 57%
    06:00 +9°C° 0 mm 2 mps 711 mmHg 55%
    07:00 +12°C° 0 mm 2 mps 712 mmHg 49%
    08:00 +15°C° 0 mm 2 mps 712 mmHg 44%
    09:00 +17°C° 0 mm 2 mps 712 mmHg 39%
    10:00 +19°C° 0 mm 2 mps 712 mmHg 36%
    11:00 +20°C° 0 mm 2 mps 712 mmHg 33%
    12:00 +21°C° 0 mm 3 mps 712 mmHg 30%
    13:00 +21°C° 0 mm 3 mps 711 mmHg 31%
    14:00 +21°C° 0 mm 3 mps 711 mmHg 32%
    15:00 +21°C° 0 mm 3 mps 710 mmHg 33%
    16:00 +18°C° 0 mm 3 mps 710 mmHg 45%
    17:00 +15°C° 0 mm 2 mps 710 mmHg 57%
    18:00 +13°C° 0 mm 1 mps 709 mmHg 69%
    19:00 +12°C° 0 mm 1 mps 709 mmHg 72%
    20:00 +11°C° 0 mm 1 mps 709 mmHg 74%
    21:00 +10°C° 0 mm 1 mps 709 mmHg 77%
    22:00 +10°C° 0 mm 1 mps 709 mmHg 76%
    23:00 +9°C° 0 mm 0 mps 709 mmHg 76%

    Day after tomorrow, 26 February, Wednesday

    Time Temperature Precipitation Wind Pressure Humidity
    00:00 +9°C° 0 mm 0 mps 709 mmHg 76%
    01:00 +9°C° 0 mm 0 mps 708 mmHg 76%
    02:00 +9°C° 0 mm 1 mps 708 mmHg 76%
    03:00 +9°C° 0 mm 1 mps 708 mmHg 76%
    04:00 +9°C° 0 mm 1 mps 708 mmHg 77%
    05:00 +9°C° 0 mm 1 mps 708 mmHg 79%
    06:00 +8°C° 0 mm 1 mps 707 mmHg 81%
    07:00 +10°C° 0 mm 1 mps 708 mmHg 75%
    08:00 +12°C° 0 mm 2 mps 709 mmHg 69%
    09:00 +13°C° 0 mm 3 mps 709 mmHg 64%
    10:00 +14°C° 0 mm 4 mps 709 mmHg 61%
    11:00 +14°C° 0 mm 5 mps 710 mmHg 58%
    12:00 +15°C° 0 mm 7 mps 710 mmHg 55%
    13:00 +15°C° 0 mm 6 mps 709 mmHg 56%
    14:00 +14°C° 0 mm 6 mps 709 mmHg 58%
    15:00 +14°C° 0 mm 6 mps 709 mmHg 59%
    16:00 +12°C° 0 mm 5 mps 709 mmHg 67%
    17:00 +10°C° 0 mm 4 mps 709 mmHg 75%
    18:00 +8°C° 0 mm 2 mps 709 mmHg 83%
    19:00 +8°C° 0.1 mm 3 mps 710 mmHg 83%
    20:00 +9°C° 0.1 mm 3 mps 710 mmHg 83%
    21:00 +9°C° 0.1 mm 3 mps 711 mmHg 83%
    22:00 +8°C° 0 mm 3 mps 711 mmHg 86%
    23:00 +7°C° 0 mm 3 mps 711 mmHg 88%

    27 February, Thursday

    Time Temperature Precipitation Wind Pressure Humidity
    00:00 +5°C° 0 mm 3 mps 711 mmHg 90%
    01:00 +5°C° 0 mm 2 mps 711 mmHg 90%
    02:00 +5°C° 0 mm 2 mps 711 mmHg 90%
    03:00 +6°C° 0 mm 1 mps 711 mmHg 91%
    04:00 +5°C° 0 mm 1 mps 711 mmHg 90%
    05:00 +5°C° 0 mm 1 mps 711 mmHg 90%
    06:00 +5°C° 0 mm 1 mps 711 mmHg 89%
    07:00 +6°C° 0 mm 2 mps 712 mmHg 81%
    08:00 +8°C° 0 mm 2 mps 713 mmHg 74%
    09:00 +10°C° 0 mm 3 mps 714 mmHg 67%
    10:00 +11°C° 0 mm 3 mps 714 mmHg 60%
    11:00 +12°C° 0 mm 4 mps 714 mmHg 54%
    12:00 +13°C° 0 mm 4 mps 714 mmHg 48%
    13:00 +14°C° 0 mm 4 mps 714 mmHg 48%
    14:00 +14°C° 0 mm 3 mps 713 mmHg 47%
    15:00 +14°C° 0 mm 3 mps 713 mmHg 46%
    16:00 +12°C° 0 mm 3 mps 713 mmHg 54%
    17:00 +10°C° 0 mm 2 mps 713 mmHg 63%
    18:00 +9°C° 0 mm 1 mps 713 mmHg 72%
    19:00 +8°C° 0 mm 1 mps 713 mmHg 73%
    20:00 +8°C° 0 mm 1 mps 713 mmHg 75%
    21:00 +7°C° 0 mm 1 mps 713 mmHg 76%
    22:00 +7°C° 0 mm 1 mps 713 mmHg 75%
    23:00 +7°C° 0 mm 1 mps 713 mmHg 73%

    28 February, Friday

    Time Temperature Precipitation Wind Pressure Humidity
    00:00 +7°C° 0 mm 1 mps 713 mmHg 72%
    01:00 +8°C° 0 mm 1 mps 713 mmHg 70%
    02:00 +8°C° 0 mm 1 mps 712 mmHg 68%
    03:00 +7°C° 0 mm 2 mps 712 mmHg 66%
    04:00 +7°C° 0 mm 2 mps 712 mmHg 64%
    05:00 +7°C° 0 mm 2 mps 712 mmHg 63%
    06:00 +7°C° 0 mm 2 mps 712 mmHg 62%
    07:00 +9°C° 0 mm 2 mps 712 mmHg 56%
    08:00 +13°C° 0 mm 2 mps 713 mmHg 50%
    09:00 +14°C° 0 mm 3 mps 713 mmHg 44%
    10:00 +17°C° 0 mm 3 mps 713 mmHg 40%
    11:00 +19°C° 0 mm 4 mps 713 mmHg 37%
    12:00 +21°C° 0 mm 4 mps 713 mmHg 33%
    13:00 +21°C° 0 mm 4 mps 712 mmHg 33%
    14:00 +21°C° 0 mm 5 mps 712 mmHg 33%
    15:00 +21°C° 0 mm 5 mps 711 mmHg 33%
    16:00 +19°C° 0 mm 5 mps 711 mmHg 37%
    17:00 +17°C° 0 mm 4 mps 710 mmHg 40%
    18:00 +13°C° 0 mm 3 mps 710 mmHg 44%
    19:00 +13°C° 0 mm 3 mps 710 mmHg 45%
    20:00 +13°C° 0 mm 2 mps 710 mmHg 46%
    21:00 +12°C° 0 mm 2 mps 709 mmHg 47%
    22:00 +12°C° 0 mm 2 mps 709 mmHg 47%
    23:00 +12°C° 0 mm 2 mps 709 mmHg 47%

    29 February, Saturday

    Time Temperature Precipitation Wind Pressure Humidity
    00:00 +12°C° 0 mm 2 mps 709 mmHg 48%
    01:00 +12°C° 0 mm 2 mps 708 mmHg 48%
    02:00 +10°C° 0 mm 2 mps 708 mmHg 48%
    03:00 +10°C° 0 mm 2 mps 708 mmHg 49%
    04:00 +10°C° 0 mm 2 mps 708 mmHg 50%
    05:00 +9°C° 0 mm 2 mps 708 mmHg 51%
    06:00 +9°C° 0 mm 2 mps 708 mmHg 52%
    07:00 +12°C° 0 mm 2 mps 708 mmHg 48%
    08:00 +15°C° 0 mm 2 mps 709 mmHg 45%
    09:00 +17°C° 0 mm 2 mps 710 mmHg 42%
    10:00 +18°C° 0 mm 3 mps 709 mmHg 40%
    11:00 +19°C° 0 mm 4 mps 709 mmHg 38%
    12:00 +20°C° 0 mm 5 mps 709 mmHg 37%
    13:00 +20°C° 0 mm 4 mps 709 mmHg 39%
    14:00 +20°C° 0 mm 4 mps 708 mmHg 41%
    15:00 +20°C° 0 mm 4 mps 708 mmHg 44%
    16:00 +17°C° 0 mm 3 mps 708 mmHg 56%
    17:00 +15°C° 0 mm 2 mps 707 mmHg 68%
    18:00 +12°C° 0 mm 1 mps 707 mmHg 80%
    19:00 +11°C° 0 mm 1 mps 707 mmHg 82%
    20:00 +11°C° 0 mm 1 mps 708 mmHg 84%
    21:00 +9°C° 0 mm 0 mps 708 mmHg 86%
    22:00 +10°C° 0 mm 1 mps 708 mmHg 86%
    23:00 +9°C° 0 mm 1 mps 707 mmHg 86%
    Show more